Погода в Монтижу

Португалия     38°42′22″N   8°58′29″W
темп.,
°C
ветер,
м/с
пор.,
м/с
влажн.,
%
обл.,
%
осадки,
мм/ч
давл.,
гПа
погр.,
м
21 июня, пн
пн2101:00+18з5768100 0.0 1014551
04:00+17з687995 0.1 1013580
07:00+17зсз588258 0.3 1014573
10:00+19зсз46695 0.3 1015478
13:00+21зсз566025 0.3 1015547
16:00+21зсз676163 0.1 1015517
19:00+19сз79660 0.1 1015572
22:00+17ссз69810 0.0 1018650
22 июня, вт
вт2201:00+16ссз48850 0.0 1018430
04:00+16ссз611870 0.0 1017531
07:00+16ссз7128626 0.0 1017666
10:00+19с810650 0.0 1018698
13:00+21с810590 0.0 1018558
16:00+22ссз911550 0.0 1018575
19:00+20ссз1012646 0.0 1018603
22:00+17ссз914835 0.0 1020557
23 июня, ср
ср2301:00+17ссз713815 0.0 1019489
04:00+16ссз713840 0.0 1018440
07:00+16ссз612840 0.0 1018449
10:00+19с57600 0.0 1018363
13:00+23ссз66485 0.0 1018541
16:00+24ссз910460 0.0 1016604
19:00+21ссз911561 0.0 1017338
22:00+18ссз59740 0.0 1018259
24 июня, чт
чт2401:00+17ссз34830 0.0 1017106
04:00+16с33820 0.0 1017117
07:00+17с35800 0.0 1017148
10:00+21св45560 0.0 1017215
13:00+25с33445 0.0 1016625
16:00+28ссз44365 0.0 1014777
19:00+25ссз911463 0.0 1014231
22:00+20ссз34615 0.0 101659
25 июня, пт
пт2501:00+19ссз33645 0.0 101626
04:00+19ссв22657 0.0 101516
07:00+19с22675 0.0 101626
10:00+22св12599 0.0 1016166
13:00+23зсз225556 0.0 1015444
16:00+28з664065 0.0 1014383
19:00+25сз79482 0.0 1014204
22:00+20ссз33680 0.0 101522